When you browse on this site, cookies collect data to enhance your experience and personalize the content and advertising you see.
Visit our Privacy Policy to learn more. By continuing to use the site, you agree to this use of cookies and data.
  • In Hungary
  • List of Countries
  • For 7 days
  • Water Temperature
  • Satellite Maps
  • Weather Map
  • News
  • Weather Widgets
  • user-avatar
    Login

    Hourly Weather San Pablo Apetatitlan

    Today, 17 February, Sunday

    Time Temperature Precipitation Wind Pressure Humidity
    00:00 +16°C° 0 mm 1 mps 576 mmHg 45%
    01:00 +15°C° 0 mm 1 mps 576 mmHg 44%
    02:00 +15°C° 0 mm 1 mps 575 mmHg 43%
    03:00 +14°C° 0 mm 1 mps 575 mmHg 44%
    04:00 +14°C° 0 mm 1 mps 575 mmHg 46%
    05:00 +14°C° 0 mm 1 mps 575 mmHg 47%
    06:00 +15°C° 0 mm 1 mps 576 mmHg 44%
    07:00 +16°C° 0 mm 1 mps 577 mmHg 42%
    08:00 +19°C° 0 mm 1 mps 578 mmHg 39%
    09:00 +20°C° 0 mm 2 mps 579 mmHg 34%
    10:00 +22°C° 0 mm 3 mps 580 mmHg 29%
    11:00 +26°C° 0 mm 3 mps 580 mmHg 24%
    12:00 +26°C° 0 mm 4 mps 580 mmHg 22%
    13:00 +27°C° 0 mm 4 mps 580 mmHg 21%
    14:00 +28°C° 0 mm 4 mps 579 mmHg 19%
    15:00 +26°C° 0 mm 4 mps 579 mmHg 22%
    16:00 +25°C° 0 mm 4 mps 579 mmHg 25%
    17:00 +23°C° 0 mm 4 mps 578 mmHg 27%
    18:00 +21°C° 0 mm 3 mps 578 mmHg 32%
    19:00 +19°C° 0 mm 3 mps 578 mmHg 36%
    20:00 +17°C° 0 mm 2 mps 578 mmHg 41%
    21:00 +18°C° 0 mm 1 mps 578 mmHg 43%
    22:00 +16°C° 0 mm 1 mps 578 mmHg 46%
    23:00 +15°C° 0 mm 1 mps 577 mmHg 49%

    Tomorrow, 18 February, Monday

    Time Temperature Precipitation Wind Pressure Humidity
    00:00 +14°C° 0 mm 0 mps 577 mmHg 51%
    01:00 +13°C° 0 mm 0 mps 577 mmHg 54%
    02:00 +13°C° 0 mm 0 mps 576 mmHg 56%
    03:00 +13°C° 0 mm 0 mps 576 mmHg 57%
    04:00 +12°C° 0 mm 0 mps 576 mmHg 58%
    05:00 +12°C° 0 mm 0 mps 576 mmHg 59%
    06:00 +13°C° 0 mm 0 mps 577 mmHg 53%
    07:00 +15°C° 0 mm 0 mps 579 mmHg 46%
    08:00 +17°C° 0 mm 0 mps 580 mmHg 40%
    09:00 +20°C° 0 mm 2 mps 580 mmHg 35%
    10:00 +22°C° 0 mm 3 mps 581 mmHg 30%
    11:00 +25°C° 0 mm 4 mps 582 mmHg 25%
    12:00 +25°C° 0 mm 4 mps 581 mmHg 25%
    13:00 +26°C° 0 mm 5 mps 581 mmHg 24%
    14:00 +26°C° 0 mm 6 mps 581 mmHg 24%
    15:00 +25°C° 0 mm 5 mps 580 mmHg 26%
    16:00 +23°C° 0 mm 5 mps 579 mmHg 29%
    17:00 +22°C° 0 mm 5 mps 579 mmHg 32%
    18:00 +20°C° 0.1 mm 4 mps 579 mmHg 35%
    19:00 +18°C° 0.1 mm 2 mps 579 mmHg 39%
    20:00 +18°C° 0.1 mm 1 mps 578 mmHg 42%
    21:00 +16°C° 0.1 mm 1 mps 578 mmHg 44%
    22:00 +16°C° 0.1 mm 1 mps 578 mmHg 46%
    23:00 +16°C° 0.1 mm 1 mps 578 mmHg 48%

    Day after tomorrow, 19 February, Tuesday

    Time Temperature Precipitation Wind Pressure Humidity
    00:00 +15°C° 0 mm 1 mps 577 mmHg 54%
    01:00 +14°C° 0 mm 1 mps 577 mmHg 59%
    02:00 +14°C° 0 mm 1 mps 576 mmHg 65%
    03:00 +13°C° 0 mm 1 mps 576 mmHg 64%
    04:00 +13°C° 0 mm 1 mps 576 mmHg 64%
    05:00 +12°C° 0 mm 1 mps 576 mmHg 63%
    06:00 +14°C° 0 mm 1 mps 577 mmHg 57%
    07:00 +15°C° 0 mm 2 mps 578 mmHg 50%
    08:00 +17°C° 0 mm 2 mps 579 mmHg 44%
    09:00 +19°C° 0 mm 3 mps 579 mmHg 37%
    10:00 +21°C° 0 mm 4 mps 580 mmHg 31%
    11:00 +22°C° 0 mm 5 mps 581 mmHg 25%
    12:00 +23°C° 0 mm 6 mps 580 mmHg 22%
    13:00 +23°C° 0 mm 6 mps 579 mmHg 20%
    14:00 +24°C° 0 mm 7 mps 579 mmHg 17%
    15:00 +23°C° 0 mm 6 mps 578 mmHg 19%
    16:00 +21°C° 0 mm 5 mps 578 mmHg 21%
    17:00 +20°C° 0 mm 5 mps 577 mmHg 23%
    18:00 +19°C° 0 mm 4 mps 577 mmHg 27%
    19:00 +17°C° 0 mm 3 mps 577 mmHg 30%
    20:00 +16°C° 0 mm 2 mps 577 mmHg 34%
    21:00 +15°C° 0 mm 2 mps 576 mmHg 36%
    22:00 +15°C° 0 mm 2 mps 576 mmHg 38%
    23:00 +14°C° 0 mm 1 mps 576 mmHg 40%

    20 February, Wednesday

    Time Temperature Precipitation Wind Pressure Humidity
    00:00 +14°C° 0 mm 1 mps 575 mmHg 42%
    01:00 +13°C° 0 mm 1 mps 575 mmHg 44%
    02:00 +12°C° 0 mm 1 mps 574 mmHg 46%
    03:00 +12°C° 0 mm 1 mps 574 mmHg 47%
    04:00 +11°C° 0 mm 1 mps 574 mmHg 48%
    05:00 +11°C° 0 mm 1 mps 574 mmHg 49%
    06:00 +12°C° 0 mm 1 mps 575 mmHg 45%
    07:00 +14°C° 0 mm 1 mps 576 mmHg 42%
    08:00 +16°C° 0 mm 2 mps 577 mmHg 38%
    09:00 +18°C° 0 mm 3 mps 578 mmHg 33%
    10:00 +20°C° 0 mm 3 mps 578 mmHg 28%
    11:00 +22°C° 0 mm 4 mps 579 mmHg 23%
    12:00 +22°C° 0 mm 5 mps 579 mmHg 22%
    13:00 +23°C° 0 mm 6 mps 578 mmHg 21%
    14:00 +23°C° 0 mm 6 mps 578 mmHg 19%
    15:00 +22°C° 0 mm 6 mps 577 mmHg 21%
    16:00 +21°C° 0 mm 6 mps 577 mmHg 22%
    17:00 +20°C° 0 mm 6 mps 576 mmHg 24%
    18:00 +18°C° 0 mm 4 mps 576 mmHg 26%
    19:00 +17°C° 0 mm 3 mps 576 mmHg 29%
    20:00 +15°C° 0 mm 2 mps 576 mmHg 31%
    21:00 +14°C° 0 mm 2 mps 576 mmHg 33%
    22:00 +14°C° 0 mm 2 mps 576 mmHg 35%
    23:00 +13°C° 0 mm 2 mps 575 mmHg 37%

    21 February, Thursday

    Time Temperature Precipitation Wind Pressure Humidity
    00:00 +13°C° 0 mm 2 mps 575 mmHg 38%
    01:00 +12°C° 0 mm 2 mps 574 mmHg 38%
    02:00 +12°C° 0 mm 2 mps 574 mmHg 39%
    03:00 +11°C° 0 mm 1 mps 574 mmHg 39%
    04:00 +11°C° 0 mm 1 mps 574 mmHg 39%
    05:00 +10°C° 0 mm 1 mps 574 mmHg 39%
    06:00 +12°C° 0 mm 1 mps 575 mmHg 36%
    07:00 +14°C° 0 mm 2 mps 576 mmHg 34%
    08:00 +15°C° 0 mm 2 mps 577 mmHg 31%
    09:00 +18°C° 0 mm 3 mps 578 mmHg 27%
    10:00 +20°C° 0 mm 3 mps 579 mmHg 23%
    11:00 +22°C° 0 mm 4 mps 580 mmHg 18%
    12:00 +23°C° 0 mm 4 mps 579 mmHg 18%
    13:00 +25°C° 0 mm 5 mps 579 mmHg 17%
    14:00 +25°C° 0 mm 5 mps 578 mmHg 16%
    15:00 +23°C° 0 mm 5 mps 578 mmHg 18%
    16:00 +22°C° 0 mm 5 mps 578 mmHg 21%
    17:00 +21°C° 0 mm 5 mps 577 mmHg 23%
    18:00 +19°C° 0 mm 4 mps 577 mmHg 27%
    19:00 +17°C° 0 mm 3 mps 577 mmHg 32%
    20:00 +15°C° 0 mm 1 mps 576 mmHg 36%
    21:00 +15°C° 0 mm 1 mps 576 mmHg 38%
    22:00 +14°C° 0 mm 1 mps 576 mmHg 40%
    23:00 +13°C° 0 mm 0 mps 576 mmHg 42%

    22 February, Friday

    Time Temperature Precipitation Wind Pressure Humidity
    00:00 +12°C° 0 mm 0 mps 576 mmHg 43%
    01:00 +13°C° 0 mm 1 mps 575 mmHg 44%
    02:00 +13°C° 0 mm 1 mps 575 mmHg 45%
    03:00 +12°C° 0 mm 1 mps 575 mmHg 46%
    04:00 +12°C° 0 mm 1 mps 575 mmHg 47%
    05:00 +12°C° 0 mm 1 mps 575 mmHg 48%
    06:00 +14°C° 0 mm 1 mps 576 mmHg 43%
    07:00 +16°C° 0 mm 1 mps 578 mmHg 39%
    08:00 +18°C° 0 mm 1 mps 579 mmHg 35%
    09:00 +20°C° 0 mm 1 mps 580 mmHg 30%
    10:00 +21°C° 0 mm 2 mps 580 mmHg 26%
    11:00 +24°C° 0 mm 2 mps 581 mmHg 21%
    12:00 +25°C° 0 mm 3 mps 581 mmHg 20%
    13:00 +26°C° 0 mm 3 mps 580 mmHg 19%
    14:00 +26°C° 0 mm 4 mps 580 mmHg 18%
    15:00 +25°C° 0 mm 4 mps 580 mmHg 20%
    16:00 +23°C° 0 mm 4 mps 579 mmHg 22%
    17:00 +22°C° 0 mm 4 mps 579 mmHg 24%
    18:00 +20°C° 0 mm 3 mps 579 mmHg 29%
    19:00 +19°C° 0 mm 2 mps 578 mmHg 33%
    20:00 +18°C° 0 mm 1 mps 578 mmHg 38%
    21:00 +16°C° 0 mm 1 mps 578 mmHg 39%
    22:00 +16°C° 0 mm 1 mps 578 mmHg 41%
    23:00 +15°C° 0 mm 1 mps 577 mmHg 43%
    Show more